Meteo orario Delyatichi

Oggi, 29 Settembre, Martedi

Tempo Temperatura Precipitazioni Vento Pressione Umidità
00:00 +9°C° 0 mm 2 m/s 752 mm Hg 83%
01:00 +9°C° 0 mm 3 m/s 752 mm Hg 83%
02:00 +9°C° 0 mm 3 m/s 752 mm Hg 83%
03:00 +9°C° 0 mm 3 m/s 751 mm Hg 82%
04:00 +9°C° 0 mm 3 m/s 751 mm Hg 81%
05:00 +9°C° 0 mm 3 m/s 751 mm Hg 80%
06:00 +10°C° 0 mm 3 m/s 751 mm Hg 77%
07:00 +11°C° 0 mm 4 m/s 751 mm Hg 74%
08:00 +11°C° 0 mm 4 m/s 751 mm Hg 70%
09:00 +13°C° 0 mm 4 m/s 751 mm Hg 66%
10:00 +14°C° 0 mm 4 m/s 750 mm Hg 62%
11:00 +17°C° 0 mm 3 m/s 750 mm Hg 58%
12:00 +17°C° 0 mm 3 m/s 750 mm Hg 55%
13:00 +18°C° 0 mm 4 m/s 750 mm Hg 53%
14:00 +19°C° 0 mm 4 m/s 750 mm Hg 51%
15:00 +18°C° 0 mm 4 m/s 749 mm Hg 55%
16:00 +17°C° 0 mm 4 m/s 749 mm Hg 60%
17:00 +17°C° 0 mm 3 m/s 748 mm Hg 65%
18:00 +15°C° 0 mm 4 m/s 749 mm Hg 70%
19:00 +13°C° 0 mm 4 m/s 749 mm Hg 76%
20:00 +12°C° 0 mm 4 m/s 749 mm Hg 82%
21:00 +13°C° 0 mm 4 m/s 749 mm Hg 83%
22:00 +13°C° 0 mm 4 m/s 748 mm Hg 84%
23:00 +13°C° 0 mm 4 m/s 748 mm Hg 86%

Domani, 30 Settembre, Mercoledi

Tempo Temperatura Precipitazioni Vento Pressione Umidità
00:00 +13°C° 0 mm 4 m/s 748 mm Hg 86%
01:00 +12°C° 0 mm 4 m/s 748 mm Hg 87%
02:00 +12°C° 0 mm 4 m/s 748 mm Hg 88%
03:00 +11°C° 0 mm 4 m/s 748 mm Hg 88%
04:00 +11°C° 0 mm 4 m/s 747 mm Hg 88%
05:00 +10°C° 0 mm 4 m/s 747 mm Hg 88%
06:00 +11°C° 0 mm 4 m/s 747 mm Hg 83%
07:00 +11°C° 0 mm 4 m/s 747 mm Hg 79%
08:00 +10°C° 0 mm 5 m/s 747 mm Hg 75%
09:00 +13°C° 0 mm 5 m/s 747 mm Hg 72%
10:00 +14°C° 0 mm 5 m/s 747 mm Hg 69%
11:00 +15°C° 0 mm 5 m/s 746 mm Hg 66%
12:00 +15°C° 0 mm 5 m/s 746 mm Hg 65%
13:00 +16°C° 0 mm 5 m/s 746 mm Hg 64%
14:00 +17°C° 0 mm 5 m/s 746 mm Hg 63%
15:00 +16°C° 0 mm 5 m/s 746 mm Hg 63%
16:00 +15°C° 0 mm 5 m/s 746 mm Hg 63%
17:00 +15°C° 0 mm 5 m/s 746 mm Hg 63%
18:00 +14°C° 0 mm 5 m/s 746 mm Hg 62%
19:00 +14°C° 0 mm 5 m/s 746 mm Hg 61%
20:00 +13°C° 0 mm 4 m/s 746 mm Hg 59%
21:00 +12°C° 0 mm 4 m/s 746 mm Hg 61%
22:00 +12°C° 0 mm 4 m/s 746 mm Hg 63%
23:00 +11°C° 0 mm 4 m/s 746 mm Hg 65%

Dopodomani, 1 Ottobre, Giovedi

Tempo Temperatura Precipitazioni Vento Pressione Umidità
00:00 +10°C° 0 mm 4 m/s 746 mm Hg 66%
01:00 +10°C° 0 mm 4 m/s 746 mm Hg 67%
02:00 +10°C° 0 mm 4 m/s 745 mm Hg 68%
03:00 +10°C° 0 mm 4 m/s 745 mm Hg 67%
04:00 +10°C° 0 mm 4 m/s 745 mm Hg 67%
05:00 +10°C° 0 mm 4 m/s 745 mm Hg 66%
06:00 +10°C° 0 mm 4 m/s 745 mm Hg 63%
07:00 +10°C° 0 mm 5 m/s 745 mm Hg 61%
08:00 +12°C° 0 mm 5 m/s 745 mm Hg 58%
09:00 +13°C° 0 mm 5 m/s 745 mm Hg 60%
10:00 +15°C° 0 mm 6 m/s 745 mm Hg 62%
11:00 +16°C° 0 mm 7 m/s 745 mm Hg 65%
12:00 +16°C° 0 mm 6 m/s 745 mm Hg 66%
13:00 +17°C° 0 mm 6 m/s 745 mm Hg 67%
14:00 +17°C° 0 mm 6 m/s 745 mm Hg 68%
15:00 +17°C° 0.1 mm 5 m/s 745 mm Hg 70%
16:00 +17°C° 0.1 mm 4 m/s 745 mm Hg 71%
17:00 +17°C° 0.1 mm 4 m/s 746 mm Hg 73%
18:00 +15°C° 0 mm 4 m/s 746 mm Hg 76%
19:00 +14°C° 0 mm 4 m/s 746 mm Hg 79%
20:00 +13°C° 0 mm 4 m/s 747 mm Hg 82%
21:00 +13°C° 0 mm 4 m/s 747 mm Hg 82%
22:00 +12°C° 0 mm 4 m/s 747 mm Hg 82%
23:00 +12°C° 0 mm 4 m/s 747 mm Hg 82%

2 Ottobre, Venerdi

Tempo Temperatura Precipitazioni Vento Pressione Umidità
00:00 +11°C° 0 mm 4 m/s 747 mm Hg 82%
01:00 +11°C° 0 mm 4 m/s 747 mm Hg 83%
02:00 +10°C° 0 mm 4 m/s 747 mm Hg 83%
03:00 +10°C° 0 mm 4 m/s 747 mm Hg 84%
04:00 +10°C° 0 mm 4 m/s 747 mm Hg 85%
05:00 +10°C° 0 mm 4 m/s 747 mm Hg 85%
06:00 +10°C° 0 mm 4 m/s 747 mm Hg 82%
07:00 +10°C° 0 mm 4 m/s 747 mm Hg 80%
08:00 +10°C° 0 mm 5 m/s 747 mm Hg 77%
09:00 +12°C° 0 mm 5 m/s 747 mm Hg 74%
10:00 +13°C° 0 mm 5 m/s 747 mm Hg 70%
11:00 +15°C° 0 mm 5 m/s 747 mm Hg 67%
12:00 +16°C° 0 mm 5 m/s 747 mm Hg 66%
13:00 +16°C° 0 mm 5 m/s 747 mm Hg 64%
14:00 +17°C° 0 mm 5 m/s 747 mm Hg 63%
15:00 +17°C° 0 mm 5 m/s 747 mm Hg 65%
16:00 +17°C° 0 mm 4 m/s 747 mm Hg 67%
17:00 +17°C° 0 mm 4 m/s 747 mm Hg 69%
18:00 +15°C° 0 mm 4 m/s 748 mm Hg 73%
19:00 +14°C° 0 mm 4 m/s 748 mm Hg 77%
20:00 +13°C° 0 mm 5 m/s 748 mm Hg 81%
21:00 +13°C° 0.2 mm 5 m/s 748 mm Hg 83%
22:00 +13°C° 0.2 mm 5 m/s 748 mm Hg 85%
23:00 +13°C° 0.2 mm 4 m/s 748 mm Hg 87%

3 Ottobre, Sabato

Tempo Temperatura Precipitazioni Vento Pressione Umidità
00:00 +13°C° 0 mm 4 m/s 748 mm Hg 87%
01:00 +12°C° 0 mm 4 m/s 748 mm Hg 86%
02:00 +12°C° 0 mm 4 m/s 748 mm Hg 86%
03:00 +11°C° 0 mm 4 m/s 748 mm Hg 86%
04:00 +11°C° 0 mm 4 m/s 748 mm Hg 86%
05:00 +11°C° 0 mm 4 m/s 749 mm Hg 86%
06:00 +11°C° 0.1 mm 4 m/s 749 mm Hg 84%
07:00 +11°C° 0.1 mm 4 m/s 749 mm Hg 83%
08:00 +11°C° 0.1 mm 4 m/s 749 mm Hg 82%
09:00 +13°C° 0 mm 5 m/s 749 mm Hg 78%
10:00 +14°C° 0 mm 5 m/s 749 mm Hg 74%
11:00 +15°C° 0 mm 5 m/s 749 mm Hg 70%
12:00 +16°C° 0 mm 5 m/s 749 mm Hg 69%
13:00 +16°C° 0 mm 5 m/s 749 mm Hg 68%
14:00 +17°C° 0 mm 5 m/s 749 mm Hg 67%
15:00 +16°C° 0 mm 5 m/s 748 mm Hg 71%
16:00 +16°C° 0 mm 5 m/s 748 mm Hg 74%
17:00 +15°C° 0 mm 4 m/s 748 mm Hg 77%
18:00 +14°C° 0 mm 4 m/s 748 mm Hg 81%
19:00 +14°C° 0 mm 5 m/s 748 mm Hg 85%
20:00 +13°C° 0 mm 5 m/s 749 mm Hg 89%
21:00 +13°C° 0.1 mm 5 m/s 749 mm Hg 89%
22:00 +13°C° 0.1 mm 5 m/s 749 mm Hg 89%
23:00 +13°C° 0.1 mm 5 m/s 748 mm Hg 89%

4 Ottobre, Domenica

Tempo Temperatura Precipitazioni Vento Pressione Umidità
00:00 +13°C° 0 mm 5 m/s 748 mm Hg 90%
01:00 +13°C° 0 mm 5 m/s 748 mm Hg 91%
02:00 +13°C° 0 mm 5 m/s 748 mm Hg 91%
03:00 +13°C° 0.4 mm 6 m/s 748 mm Hg 92%
04:00 +13°C° 0.4 mm 6 m/s 748 mm Hg 92%
05:00 +14°C° 0.4 mm 6 m/s 748 mm Hg 92%
06:00 +14°C° 0.3 mm 6 m/s 747 mm Hg 91%
07:00 +14°C° 0.3 mm 7 m/s 747 mm Hg 91%
08:00 +14°C° 0.3 mm 7 m/s 747 mm Hg 90%
09:00 +14°C° 0.2 mm 7 m/s 747 mm Hg 89%
10:00 +14°C° 0.2 mm 7 m/s 747 mm Hg 88%
11:00 +15°C° 0.2 mm 8 m/s 748 mm Hg 88%
12:00 +15°C° 0.1 mm 8 m/s 747 mm Hg 86%
13:00 +16°C° 0.1 mm 9 m/s 747 mm Hg 85%
14:00 +16°C° 0.1 mm 9 m/s 747 mm Hg 83%
15:00 +16°C° 0 mm 9 m/s 747 mm Hg 83%
16:00 +16°C° 0 mm 8 m/s 747 mm Hg 83%
17:00 +15°C° 0 mm 8 m/s 747 mm Hg 84%
18:00 +15°C° 0 mm 8 m/s 747 mm Hg 84%
19:00 +15°C° 0 mm 8 m/s 747 mm Hg 84%
20:00 +15°C° 0 mm 8 m/s 747 mm Hg 84%
21:00 +15°C° 0.3 mm 8 m/s 747 mm Hg 86%
22:00 +15°C° 0.3 mm 8 m/s 747 mm Hg 88%
23:00 +15°C° 0.3 mm 7 m/s 747 mm Hg 89%
Mostrare altro